DMSP 5D-2 F13 DEB, 42281

Orbit data source: Space-Track

DMSP 5D-2 F13 DEB, 42281 is space debris in SSO originally from a launch on Fri, 24 Mar 1995 UTC launched from the Air Force Western Test Range (AFWTR). Debris objects in space refer to the collection of defunct objects orbiting the Earth. Examples of debris include non-operational satellites, rocket bodies, and fragments generated from explosions, collisions, or faulty payload assembly.

Loading next visibility...
Identifier
42281, 1995-015GX
Orbit
SSO
Country
Flag of USUS
Related business
Manufacturer
Unknown
Mission
Spacecraft
Bus & Motor
Unknown
Mass
Unknown
Launch date (UTC)
1995-03-24 (30 years ago)
Launch vehicle
Unknown
Launch site
Air Force Western Test Range (AFWTR)
Object type
Payload
Rocket body
Debris
Shape & HBR
Unknown
Radar Cross Section
Small (<0.1 m²)

Expand to show TLE details & history
Last TLE update: 16 hours ago

TLE from 16 hours ago
0 DMSP 5D-2 F13 DEB
1 42281U 95015GX  25261.11329676  .00008315  00000-0  18836-2 0  9993
2 42281  98.5644 315.4429 0031779 159.9258 200.3196 14.56064311544105
Epoch: 2025-09-18T02:43Z
TLE epoch observation values (Epoch: 2025-09-18T02:43:08.84Z)
Latitude
-0.00006°
Longitude
-82.62348°
Altitude
730.003 km
Speed
7.479 km/s
True Right ascension
21h 01m 46s
True Declination
0° 00' 00"
Sunlit
Object was in full shadow at epoch
Visualization orbit readout
Latitude
Unknown
Longitude
Unknown
Altitude
Unknown
Speed
Unknown
Apparent Right ascension
Unknown
Apparent Declination
Unknown
Sunlit
N/A
Visualization observer readout
Local Sidereal Time
11:34:25
Azimuth
Unknown
Elevation
Unknown
Doppler factor
Unknown
Orbital elements
Apogee altitude
725.517 km
Perigee altitude
680.511 km
Semi-major axis
7,081.151 km
Eccentricity
0.00318
Inclination
98.5644°
RAAN
315.4429°
Arg. of periapsis
159.9258°
True anomaly
200.19361°
Mean anomaly
200.3196°
Eccentric anomaly
200.25656°
Mean motion
3.6424 °/min
Orbital period
98.84 mins
BSTAR
0.0018836
Loading maneuver chart data...
Computing Atmospheric mass density...

Documentation

Showing up to 5 results
|